Location: ????????
(60.4333°N, 46.4710°E)
Time: 19:52:11
(UTC+00:00)

COSMOS 2428 - Pass Details

Date: 25 November 2020
Orbit: 848 x 855 km, 70.9° (Epoch: 17 January)

Event Time Altitude Azimuth Distance (km) Brightness Sun altitude
Rises 17:02:39 0° 272° (W) 3,431 6.8 -35.3°
Reaches altitude 10° 17:05:23 10° 282° (WNW) 2,495 5.9 -35.6°
Enters shadow 17:09:46 31° 330° (NNW) 1,463 4.2 -36.1°
